Tri-Cities, TN

7:42 AM EDT on September 23, 2017 (GMT -0400)
Tri-Cities Regional Tennessee / Virginia

Weather History for KTRI - February, 2013

Change the Weather History Date:

Sunday, February 3, 2013

  Actual Average Record
Temperature  
Mean Temperature 34 °F 36 °F  
Max Temperature 37 °F 47 °F 74 °F (1989)
Min Temperature 30 °F 26 °F -4 °F (1965)
Degree Days  
Heating Degree Days 31 28  
Month to date heating degree days 110 86  
Since 1 July heating degree days 2548 2740  
Cooling Degree Days 0 0  
Month to date cooling degree days 0 0  
Year to date cooling degree days 0 0  
Moisture  
Dew Point 28 °F    
Average Humidity 78    
Maximum Humidity 92    
Minimum Humidity 63    
Precipitation  
Precipitation 0.06 in 0.12 in 1.17 in (2014)
Month to date precipitation 0.32 0.37  
Year to date precipitation 10.31 3.74  
Snow  
Snow 0.50 in 0.10 in - ()
Month to date snowfall 3.1 0.4  
Since 1 July snowfall 7.2 7.8  
Snow Depth 3.00 in    
Sea Level Pressure  
Sea Level Pressure 30.00 in    
Wind  
Wind Speed 12 mph (WSW)    
Max Wind Speed 24 mph    
Max Gust Speed 32 mph    
Visibility 6 miles    
Events Fog , Snow    
T = Trace of Precipitation, MM = Missing Value Source: NWS Daily Summary

Daily Weather History Graph

Daily Weather History Graph

Search for Another Location

Airport or City:

Trip Planner

Search our weather history database for the weather conditions in past years. The results will help you decide how hot, cold, wet, or windy it might be!

Date:

Astronomy

Feb. 03, 2013 Rise Set
Actual Time 7:29 AM EST 5:58 PM EST
Civil Twilight 7:02 AM EST 6:25 PM EST
Nautical Twilight 6:31 AM EST 6:55 PM EST
Astronomical Twilight 6:01 AM EST 7:26 PM EST
Moon 12:55 AM EST (2/3) 11:35 AM EST (2/3)
Length of Visible Light 11h 22m
Length of Day
10h 28m
Waning Gibbous, 49% of the Moon is Illuminated
Feb 3
Waning Gibbous
Feb 10
New
Feb 17
First Quarter
Feb 25
Full
Mar 4
Last Quarter

Hourly Weather History & Observations

Time (EST) Temp. Windchill Dew Point Humidity Pressure Visibility Wind Dir Wind Speed Gust Speed Precip Events Conditions
12:07 AM 30.9 °F - 28.9 °F 92% 30.03 in 4.0 mi Calm Calm - N/A   Overcast
12:11 AM 30.9 °F 27.5 °F 28.9 °F 92% 30.02 in 5.0 mi WNW 3.5 mph - N/A   Overcast
12:53 AM 30.9 °F 26.2 °F 28.9 °F 92% 30.03 in 5.0 mi WSW 4.6 mph - 0.00 in Snow Light Snow
1:33 AM 32.0 °F 25.6 °F 30.0 °F 92% 30.01 in 3.0 mi WSW 6.9 mph - 0.00 in Snow Light Snow
1:40 AM 32.0 °F 24.2 °F 30.0 °F 92% 30.01 in 2.5 mi West 9.2 mph - 0.00 in Snow Light Snow
1:53 AM 32.0 °F 23.6 °F 30.0 °F 92% 30.02 in 2.5 mi West 10.4 mph - 0.01 in Snow Light Snow
2:43 AM 32.0 °F 24.2 °F 28.4 °F 87% 30.42 in 2.5 mi WSW 9.2 mph - N/A   Overcast
2:53 AM 32.0 °F 23.0 °F 28.9 °F 88% 30.00 in 4.0 mi WSW 11.5 mph - 0.02 in Snow Light Snow
2:56 AM 32.0 °F 23.6 °F 28.4 °F 87% 30.42 in 6.0 mi West 10.4 mph - N/A   Overcast
3:04 AM 32.0 °F 24.2 °F 28.9 °F 88% 29.99 in 5.0 mi WSW 9.2 mph - 0.00 in   Overcast
3:35 AM 32.0 °F 24.2 °F 28.0 °F 85% 29.99 in 6.0 mi WSW 9.2 mph - 0.00 in   Overcast
3:53 AM 32.0 °F 23.6 °F 27.0 °F 82% 30.00 in 8.0 mi West 10.4 mph 21.9 mph 0.00 in   Mostly Cloudy
4:53 AM 30.9 °F 22.2 °F 26.1 °F 82% 29.99 in 10.0 mi WSW 10.4 mph - N/A   Overcast
5:53 AM 30.9 °F 21.2 °F 27.0 °F 85% 29.98 in 10.0 mi SW 12.7 mph - N/A   Overcast
6:41 AM 30.9 °F 21.2 °F 27.0 °F 85% 29.96 in 10.0 mi WSW 12.7 mph - N/A   Overcast
6:50 AM 30.2 °F 20.2 °F 26.6 °F 86% 29.95 in 10.0 mi SW 12.7 mph - N/A   Overcast
6:53 AM 30.9 °F 20.7 °F 27.0 °F 85% 29.96 in 10.0 mi SW 13.8 mph - N/A   Overcast
7:26 AM 32.0 °F 23.0 °F 28.0 °F 85% 29.95 in 10.0 mi WSW 11.5 mph - N/A   Overcast
7:47 AM 30.2 °F 20.8 °F 28.4 °F 93% 29.95 in 2.0 mi WSW 11.5 mph - 0.00 in Snow Light Snow
7:53 AM 30.9 °F 21.7 °F 28.0 °F 89% 29.96 in 2.0 mi SW 11.5 mph - 0.00 in Snow Light Snow
8:10 AM 30.9 °F 22.8 °F 28.9 °F 92% 29.95 in 1.5 mi WSW 9.2 mph - 0.00 in Snow Light Snow
8:20 AM 30.9 °F 22.2 °F 28.9 °F 92% 29.95 in 2.0 mi WSW 10.4 mph - 0.00 in Snow Light Snow
8:49 AM 30.2 °F 22.6 °F 28.4 °F 93% 29.95 in 2.0 mi SW 8.1 mph - 0.00 in Snow Light Snow
8:53 AM 30.9 °F 22.8 °F 28.9 °F 92% 29.96 in 2.0 mi SW 9.2 mph - 0.00 in Snow Light Snow
9:50 AM 32.0 °F 23.0 °F 28.4 °F 87% 29.95 in 0.8 mi SW 11.5 mph - 0.01 in Snow Light Snow
9:53 AM 32.0 °F 23.6 °F 30.0 °F 92% 29.96 in 0.8 mi SW 10.4 mph - 0.01 in Snow Light Snow
10:02 AM 32.0 °F 22.5 °F 28.9 °F 88% 29.95 in 1.0 mi WSW 12.7 mph - 0.00 in Snow Light Snow
10:09 AM 32.0 °F 22.1 °F 28.9 °F 88% 29.94 in 2.0 mi WSW 13.8 mph - 0.00 in Snow Light Snow
10:18 AM 33.1 °F 23.4 °F 28.9 °F 85% 29.94 in 0.8 mi WSW 13.8 mph - 0.00 in Snow Light Snow
10:46 AM 33.1 °F 24.4 °F 30.0 °F 89% 29.94 in 1.5 mi WSW 11.5 mph - 0.01 in Snow Light Snow
11:01 AM 33.1 °F 23.4 °F 30.0 °F 89% 29.94 in 0.5 mi SW 13.8 mph - 0.01 in Fog , Snow Snow
11:34 AM 33.1 °F 25.5 °F 30.9 °F 92% 29.93 in 1.5 mi WSW 9.2 mph - 0.02 in Snow Light Snow
11:41 AM 34.0 °F 26.0 °F 30.9 °F 89% 29.94 in 2.5 mi WSW 10.4 mph - 0.02 in Snow Light Snow
11:53 AM 34.0 °F 25.0 °F 30.9 °F 89% 29.94 in 2.5 mi WSW 12.7 mph - 0.02 in Snow Light Snow
12:40 PM 34.0 °F 24.2 °F 30.0 °F 85% 29.93 in 8.0 mi WSW 15.0 mph - 0.00 in Snow Light Snow
12:53 PM 34.0 °F 24.2 °F 30.9 °F 89% 29.93 in 8.0 mi WSW 15.0 mph - 0.00 in Snow Light Snow
1:30 PM 35.1 °F 26.4 °F 30.0 °F 82% 29.93 in 10.0 mi WSW 12.7 mph - 0.00 in   Overcast
1:42 PM 35.1 °F 25.9 °F 30.0 °F 82% 29.93 in 10.0 mi WSW 13.8 mph - 0.00 in Snow Light Snow
1:53 PM 35.1 °F 25.2 °F 30.0 °F 82% 29.93 in 9.0 mi WSW 16.1 mph - 0.00 in Snow Light Snow
2:53 PM 36.0 °F 25.3 °F 28.9 °F 76% 29.95 in 10.0 mi West 19.6 mph 24.2 mph 0.00 in   Overcast
3:53 PM 36.0 °F 25.6 °F 28.0 °F 73% 29.98 in 10.0 mi West 18.4 mph 25.3 mph 0.00 in   Overcast
4:53 PM 35.1 °F 26.9 °F 27.0 °F 72% 30.01 in 10.0 mi West 11.5 mph - 0.00 in   Overcast
5:38 PM 35.1 °F 29.3 °F 28.0 °F 76% 30.02 in 9.0 mi West 6.9 mph - 0.00 in Snow Light Snow
5:53 PM 35.1 °F 28.6 °F 28.0 °F 76% 30.03 in 9.0 mi West 8.1 mph - 0.00 in   Overcast
6:53 PM 35.1 °F 25.2 °F 26.1 °F 70% 30.05 in 10.0 mi West 16.1 mph 21.9 mph 0.00 in Snow Light Snow
7:53 PM 34.0 °F 24.6 °F 24.1 °F 67% 30.08 in 9.0 mi West 13.8 mph 26.5 mph 0.00 in Snow Light Snow
8:53 PM 32.0 °F 21.6 °F 24.1 °F 73% 30.09 in 10.0 mi West 15.0 mph 19.6 mph 0.00 in   Mostly Cloudy
9:53 PM 30.9 °F 19.8 °F 21.0 °F 67% 30.11 in 10.0 mi West 16.1 mph 26.5 mph N/A   Overcast
10:53 PM 30.9 °F 21.2 °F 19.9 °F 64% 30.13 in 10.0 mi West 12.7 mph - N/A   Overcast
11:53 PM 30.0 °F 21.1 °F 18.0 °F 61% 30.13 in 10.0 mi WNW 10.4 mph - N/A   Overcast